Flag for Brazil Weather past 2 weeks in Porto Velho, Rondônia, Brazil

Now
72 °F

Passing clouds.


Feels Like: 71 °F
Forecast: 69 / 89 °F
Wind: 3 mph from South

Location: Porto Velho Aeroporto

Current Time: Jul 28, 2014 at 5:27:23 AM

Latest Report: Jul 28, 2014 at 5:00 AM


Visibility: N/A

Pressure: 30.04 "Hg

Humidity: 83%

Dew point: 66 °F

Location of Porto VelhoLocation

Historic Weather in Porto Velho — Graph

°F

Porto Velho temperature yesterday

Maximum temperature yesterday: 88 °F (at 2:00 PM)
Minimum temperature yesterday: 68 °F (at 2:00 AM)
Average temperature yesterday: 77 °F

Past Weeks' High & Low Weather Summary

 TemperatureHumidityPressure
High95 °F (Jul 14, 3:00 PM)89% (Jul 13, 8:00 AM)30.07 "Hg (Jul 13, 8:00 AM)
Low66 °F (Jul 25, 10:00 AM)32% (Jul 14, 4:00 PM)29.80 "Hg (Jul 23, 5:00 PM)
Average78 °F76%29.95 "Hg
* Reported Jul 13 4:00 AM — Jul 28 4:00 AM, Porto Velho, Weather by CustomWeather, © 2014

Note: Actual official high and low records may vary slightly from our data, if they occured in-between our weather recording intervals... More about our weather records

Advertising

Porto Velho weather history for previous 24 hours

 ConditionsComfort  
Time TempWeatherWind HumidityBarometerVisibility
4:00 AM
Jul 28
72 °FClear.No wind83%30.01 "Hg10 mi
3:00 AM72 °FClear.2 mph83%30.01 "Hg10 mi
2:00 AM73 °FClear.9 mph83%30.01 "Hg10 mi
1:00 AM75 °FClear.2 mph78%30.01 "Hg10 mi
12:00 AM75 °FClear.6 mph83%30.04 "Hg10 mi
11:00 PM
Jul 27
77 °FClear.8 mph79%30.04 "Hg10 mi
10:00 PM77 °FClear.7 mph79%30.04 "Hg10 mi
9:00 PM77 °FClear.No wind74%30.01 "Hg10 mi
8:00 PM79 °FClear.No wind70%29.98 "Hg10 mi
7:00 PM81 °FClear.No wind66%29.95 "Hg10 mi
6:00 PM81 °FPassing clouds.7 mph66%29.92 "HgN/A
5:00 PM88 °FScattered clouds.6 mph59%29.92 "HgN/A
4:00 PM88 °FScattered clouds.No wind59%29.92 "Hg10 mi
3:00 PM88 °FScattered clouds.6 mph62%29.95 "HgN/A
2:00 PM88 °FScattered clouds.5 mph66%29.98 "HgN/A
1:00 PM86 °FPassing clouds.2 mph70%30.01 "HgN/A
12:00 PM84 °FSunny.6 mph74%30.01 "Hg10 mi
11:00 AM81 °FSunny.2 mph79%30.04 "Hg10 mi
10:00 AM77 °FSunny.7 mph83%30.04 "Hg10 mi
9:00 AM73 °FSunny.7 mph83%30.04 "Hg10 mi
8:00 AM70 °FSunny.5 mph88%30.01 "Hg10 mi
7:00 AM68 °FPassing clouds.2 mph88%29.98 "HgN/A
6:00 AM68 °FClear.No wind88%29.98 "Hg10 mi
5:00 AM68 °FClear.No wind88%29.98 "Hg10 mi
Weather by CustomWeather, © 2014

See weather overviewHow to use our weather pages